Starlink 34343

operational
NORAD ID: 64157 Int'l Des: 2025-112 Owner: SPXS Country: US Constellation: starlink
LEOCIRCULARRETROGRADESSO

About Starlink 34343

Description loading...

Live Position

Loading 3D Globe...

Upcoming Passes

Altitude History

Altitude vs Time

uPlot chart will show altitude changes over time

Two-Line Element Set

1 64157U 25112M 26102.45099385 .00008449 00000-0 64531-3 0 9995
2 64157 97.6160 154.7613 0019070 133.7751 226.5055 15.02066645 48388
Epoch: Apr 12, 2026 • Age: 9 hours

Current Status

Altitude 580.6 km
Velocity 7.57 km/s
Sub-Earth Point -48.25°S, 171.92°W
Launch Date May 27, 2025
Age 0.8 years
Type internet

Technical Details

Classification Payload
Mass 575.00 kg
Dry Mass 530.00 kg
Total Mass 575.00 kg
Length 0.30 m
Diameter 4.10 m
Span 29.00 m
Shape Box + pan
Manufacturer SPXS
Bus Type Starlink V2MO
Phase Status In Orbit
Owner/State SPXS/US

Large Constellations

Loading constellations...